Location: Madrid
(40.4000°N, 3.6830°W)
Time: 15:40:35

ISS - Pass Details

Date: 19 March 2018
Orbit: 403 x 406 km, 51.6° (Epoch: 17 March)

Event Time Altitude Azimuth Distance (km) Brightness Sun altitude
Exits shadow 05:48:38 52° 306° (NW) 511 -3.6 -18.1°
Maximum altitude 05:49:21 89° 217° (SW) 408 -3.9 -17.9°
Drops below altitude 10° 05:52:36 10° 128° (SE) 1,453 -0.5 -17.3°
Sets 05:54:41 0° 128° (SE) 2,309 0.6 -17.0°
